Time,TemperatureF,DewpointF,PressureIn,WindDirection,WindDirectionDegrees,WindSpeedMPH,WindSpeedGustMPH,Humidity,HourlyPrecipIn,Conditions,Clouds,dailyrainin,SoftwareType,DateUTC
2013-01-14 00:03:00,64.6,26.0,25.70,North,0,0.0,0.0,23,0.00,,---,0.00,VWS V13.01,2013-01-14 06:03:00,
2013-01-14 00:08:00,64.6,26.0,25.70,North,0,0.0,0.0,23,0.00,,---,0.00,VWS V13.01,2013-01-14 06:08:00,
2013-01-14 00:13:00,64.4,25.8,25.70,North,0,0.0,0.0,23,0.00,,---,0.00,VWS V13.01,2013-01-14 06:13:00,
2013-01-14 00:18:00,64.4,25.8,25.70,North,0,0.0,0.0,23,0.00,,---,0.00,VWS V13.01,2013-01-14 06:18:00,
2013-01-14 00:23:00,64.4,25.8,25.70,North,0,0.0,0.0,23,0.00,,---,0.00,VWS V13.01,2013-01-14 06:23:00,
2013-01-14 00:28:00,64.4,25.8,25.70,North,0,0.0,0.0,23,0.00,,---,0.00,VWS V13.01,2013-01-14 06:28:00,
2013-01-14 00:33:00,64.4,25.8,25.70,North,0,0.0,0.0,23,0.00,,---,0.00,VWS V13.01,2013-01-14 06:33:00,
2013-01-14 00:38:00,64.4,25.8,25.70,North,0,0.0,0.0,23,0.00,,---,0.00,VWS V13.01,2013-01-14 06:38:00,
2013-01-14 00:43:00,64.6,26.0,25.70,North,0,0.0,0.0,23,0.00,,---,0.00,VWS V13.01,2013-01-14 06:43:00,
2013-01-14 00:49:00,64.4,25.8,25.70,North,0,0.0,0.0,23,0.00,,---,0.00,VWS V13.01,2013-01-14 06:49:00,
2013-01-14 00:54:00,64.4,25.8,25.70,North,0,0.0,0.0,23,0.00,,---,0.00,VWS V13.01,2013-01-14 06:54:00,
2013-01-14 00:59:00,64.4,25.8,25.70,North,0,0.0,0.0,23,0.00,,---,0.00,VWS V13.01,2013-01-14 06:59:00,
2013-01-14 01:04:00,64.4,25.8,25.70,North,0,0.0,0.0,23,0.00,,---,0.00,VWS V13.01,2013-01-14 07:04:00,
2013-01-14 01:09:00,64.6,26.0,25.70,North,0,0.0,0.0,23,0.00,,---,0.00,VWS V13.01,2013-01-14 07:09:00,
2013-01-14 01:14:00,64.6,26.0,25.70,North,0,0.0,0.0,23,0.00,,---,0.00,VWS V13.01,2013-01-14 07:14:00,
2013-01-14 01:19:00,64.4,25.8,25.70,North,0,0.0,0.0,23,0.00,,---,0.00,VWS V13.01,2013-01-14 07:19:00,
2013-01-14 01:24:00,64.2,25.7,25.67,North,0,0.0,0.0,23,0.00,,---,0.00,VWS V13.01,2013-01-14 07:24:00,
2013-01-14 01:29:00,64.0,25.5,25.67,North,0,0.0,0.0,23,0.00,,---,0.00,VWS V13.01,2013-01-14 07:29:00,
2013-01-14 01:34:00,63.9,25.4,25.67,North,0,0.0,0.0,23,0.00,,---,0.00,VWS V13.01,2013-01-14 07:34:00,
2013-01-14 01:39:00,63.9,25.4,25.67,North,0,0.0,0.0,23,0.00,,---,0.00,VWS V13.01,2013-01-14 07:39:00,
2013-01-14 01:44:00,63.9,25.4,25.67,North,0,0.0,0.0,23,0.00,,---,0.00,VWS V13.01,2013-01-14 07:44:00,
2013-01-14 01:49:00,64.4,25.8,25.67,North,0,0.0,0.0,23,0.00,,---,0.00,VWS V13.01,2013-01-14 07:49:00,
2013-01-14 01:54:00,64.8,22.8,25.67,North,0,0.0,0.0,20,0.00,,---,0.00,VWS V13.01,2013-01-14 07:54:00,
2013-01-14 01:59:00,64.9,22.9,25.67,North,0,0.0,0.0,20,0.00,,---,0.00,VWS V13.01,2013-01-14 07:59:00,
2013-01-14 02:04:00,65.1,23.1,25.67,North,0,0.0,0.0,20,0.00,,---,0.00,VWS V13.01,2013-01-14 08:04:00,
2013-01-14 02:09:00,65.1,23.1,25.67,North,0,0.0,0.0,20,0.00,,---,0.00,VWS V13.01,2013-01-14 08:09:00,
2013-01-14 02:14:00,65.1,23.1,25.67,North,0,0.0,0.0,20,0.00,,---,0.00,VWS V13.01,2013-01-14 08:14:00,
2013-01-14 02:19:00,65.1,23.1,25.67,North,0,0.0,0.0,20,0.00,,---,0.00,VWS V13.01,2013-01-14 08:19:00,
2013-01-14 02:24:00,64.9,22.9,25.67,North,0,0.0,0.0,20,0.00,,---,0.00,VWS V13.01,2013-01-14 08:24:00,
2013-01-14 02:29:00,64.8,22.8,25.67,North,0,0.0,0.0,20,0.00,,---,0.00,VWS V13.01,2013-01-14 08:29:00,
2013-01-14 02:34:00,64.2,25.7,25.67,North,0,0.0,0.0,23,0.00,,---,0.00,VWS V13.01,2013-01-14 08:34:00,
2013-01-14 02:39:00,63.5,25.1,25.67,North,0,0.0,0.0,23,0.00,,---,0.00,VWS V13.01,2013-01-14 08:39:00,
2013-01-14 02:44:00,63.1,25.8,25.67,North,0,0.0,0.0,24,0.00,,---,0.00,VWS V13.01,2013-01-14 08:44:00,
2013-01-14 02:49:00,63.0,25.6,25.67,North,0,0.0,0.0,24,0.00,,---,0.00,VWS V13.01,2013-01-14 08:49:00,
2013-01-14 02:54:00,63.0,25.6,25.67,North,0,0.0,0.0,24,0.00,,---,0.00,VWS V13.01,2013-01-14 08:54:00,
2013-01-14 02:59:00,63.0,25.6,25.67,North,0,0.0,0.0,24,0.00,,---,0.00,VWS V13.01,2013-01-14 08:59:00,
2013-01-14 03:04:00,63.0,25.6,25.67,North,0,0.0,0.0,24,0.00,,---,0.00,VWS V13.01,2013-01-14 09:04:00,
2013-01-14 03:09:00,63.1,25.8,25.67,North,0,0.0,0.0,24,0.00,,---,0.00,VWS V13.01,2013-01-14 09:09:00,
2013-01-14 03:14:00,63.1,25.8,25.67,North,0,0.0,0.0,24,0.00,,---,0.00,VWS V13.01,2013-01-14 09:14:00,
2013-01-14 03:19:00,63.5,26.1,25.67,North,0,0.0,0.0,24,0.00,,---,0.00,VWS V13.01,2013-01-14 09:19:00,
2013-01-14 03:24:00,63.7,26.2,25.67,North,0,0.0,0.0,24,0.00,,---,0.00,VWS V13.01,2013-01-14 09:24:00,
2013-01-14 03:29:00,63.9,25.4,25.67,North,0,0.0,0.0,23,0.00,,---,0.00,VWS V13.01,2013-01-14 09:29:00,
2013-01-14 03:34:00,64.6,26.0,25.67,North,0,0.0,0.0,23,0.00,,---,0.00,VWS V13.01,2013-01-14 09:34:00,
2013-01-14 03:39:00,65.1,23.1,25.67,North,0,0.0,0.0,20,0.00,,---,0.00,VWS V13.01,2013-01-14 09:39:00,
2013-01-14 03:44:00,65.3,23.2,25.67,North,0,0.0,0.0,20,0.00,,---,0.00,VWS V13.01,2013-01-14 09:44:00,
2013-01-14 03:49:00,65.3,23.2,25.67,North,0,0.0,0.0,20,0.00,,---,0.00,VWS V13.01,2013-01-14 09:49:00,
2013-01-14 03:54:00,65.1,23.1,25.67,North,0,0.0,0.0,20,0.00,,---,0.00,VWS V13.01,2013-01-14 09:54:00,
2013-01-14 03:59:00,64.9,22.9,25.67,North,0,0.0,0.0,20,0.00,,---,0.00,VWS V13.01,2013-01-14 09:59:00,
2013-01-14 04:04:00,64.8,22.8,25.67,North,0,0.0,0.0,20,0.00,,---,0.00,VWS V13.01,2013-01-14 10:04:00,
2013-01-14 04:09:00,64.6,22.6,25.67,North,0,0.0,0.0,20,0.00,,---,0.00,VWS V13.01,2013-01-14 10:09:00,
2013-01-14 04:14:00,64.8,22.8,25.67,North,0,0.0,0.0,20,0.00,,---,0.00,VWS V13.01,2013-01-14 10:14:00,
2013-01-14 04:19:00,64.9,22.9,25.67,North,0,0.0,0.0,20,0.00,,---,0.00,VWS V13.01,2013-01-14 10:19:00,
2013-01-14 04:24:00,64.9,22.9,25.67,North,0,0.0,0.0,20,0.00,,---,0.00,VWS V13.01,2013-01-14 10:24:00,
2013-01-14 04:29:00,64.8,22.8,25.67,North,0,0.0,0.0,20,0.00,,---,0.00,VWS V13.01,2013-01-14 10:29:00,
2013-01-14 04:34:00,64.6,22.6,25.67,North,0,0.0,0.0,20,0.00,,---,0.00,VWS V13.01,2013-01-14 10:34:00,
2013-01-14 04:39:00,64.4,22.5,25.67,North,0,0.0,0.0,20,0.00,,---,0.00,VWS V13.01,2013-01-14 10:39:00,
2013-01-14 04:44:00,64.2,23.5,25.67,North,0,0.0,0.0,21,0.00,,---,0.00,VWS V13.01,2013-01-14 10:44:00,
2013-01-14 04:49:00,64.2,23.5,25.67,North,0,0.0,0.0,21,0.00,,---,0.00,VWS V13.01,2013-01-14 10:49:00,
2013-01-14 04:54:00,64.4,22.5,25.67,North,0,0.0,0.0,20,0.00,,---,0.00,VWS V13.01,2013-01-14 10:54:00,
2013-01-14 04:59:00,64.4,22.5,25.67,North,0,0.0,0.0,20,0.00,,---,0.00,VWS V13.01,2013-01-14 10:59:00,
2013-01-14 05:04:00,64.4,22.5,25.67,North,0,0.0,0.0,20,0.00,,---,0.00,VWS V13.01,2013-01-14 11:04:00,
2013-01-14 05:09:00,64.4,22.5,25.67,North,0,0.0,0.0,20,0.00,,---,0.00,VWS V13.01,2013-01-14 11:09:00,
2013-01-14 05:14:00,64.4,22.5,25.67,North,0,0.0,0.0,20,0.00,,---,0.00,VWS V13.01,2013-01-14 11:14:00,
2013-01-14 05:19:00,64.2,25.7,25.67,North,0,0.0,0.0,23,0.00,,---,0.00,VWS V13.01,2013-01-14 11:19:00,
2013-01-14 05:24:00,64.2,25.7,25.70,North,0,0.0,0.0,23,0.00,,---,0.00,VWS V13.01,2013-01-14 11:24:00,
2013-01-14 05:29:00,64.0,25.5,25.70,North,0,0.0,0.0,23,0.00,,---,0.00,VWS V13.01,2013-01-14 11:29:00,
2013-01-14 05:34:00,64.0,25.5,25.70,North,0,0.0,0.0,23,0.00,,---,0.00,VWS V13.01,2013-01-14 11:34:00,
2013-01-14 05:39:00,64.0,25.5,25.67,North,0,0.0,0.0,23,0.00,,---,0.00,VWS V13.01,2013-01-14 11:39:00,
2013-01-14 05:44:00,64.0,25.5,25.67,North,0,0.0,0.0,23,0.00,,---,0.00,VWS V13.01,2013-01-14 11:44:00,
2013-01-14 05:49:00,64.0,25.5,25.67,North,0,0.0,0.0,23,0.00,,---,0.00,VWS V13.01,2013-01-14 11:49:00,
2013-01-14 05:54:00,64.2,25.7,25.70,North,0,0.0,0.0,23,0.00,,---,0.00,VWS V13.01,2013-01-14 11:54:00,
2013-01-14 05:59:00,64.2,25.7,25.70,North,0,0.0,0.0,23,0.00,,---,0.00,VWS V13.01,2013-01-14 11:59:00,
2013-01-14 06:04:00,64.2,25.7,25.70,North,0,0.0,0.0,23,0.00,,---,0.00,VWS V13.01,2013-01-14 12:04:00,
2013-01-14 06:09:00,64.4,25.8,25.67,North,0,0.0,0.0,23,0.00,,---,0.00,VWS V13.01,2013-01-14 12:09:00,
2013-01-14 06:14:00,64.6,26.0,25.67,North,0,0.0,0.0,23,0.00,,---,0.00,VWS V13.01,2013-01-14 12:14:00,
2013-01-14 06:19:00,64.8,26.1,25.67,North,0,0.0,0.0,23,0.00,,---,0.00,VWS V13.01,2013-01-14 12:19:00,
2013-01-14 06:24:00,64.9,22.9,25.70,North,0,0.0,0.0,20,0.00,,---,0.00,VWS V13.01,2013-01-14 12:24:00,
2013-01-14 06:29:00,65.1,23.1,25.70,North,0,0.0,0.0,20,0.00,,---,0.00,VWS V13.01,2013-01-14 12:29:00,
2013-01-14 06:34:00,65.3,23.2,25.70,North,0,0.0,0.0,20,0.00,,---,0.00,VWS V13.01,2013-01-14 12:34:00,
2013-01-14 06:39:00,65.3,23.2,25.70,North,0,0.0,0.0,20,0.00,,---,0.00,VWS V13.01,2013-01-14 12:39:00,
2013-01-14 06:44:00,65.3,23.2,25.70,North,0,0.0,0.0,20,0.00,,---,0.00,VWS V13.01,2013-01-14 12:44:00,
2013-01-14 06:49:00,65.3,23.2,25.70,North,0,0.0,0.0,20,0.00,,---,0.00,VWS V13.01,2013-01-14 12:49:00,
2013-01-14 06:54:00,65.1,23.1,25.70,North,0,0.0,0.0,20,0.00,,---,0.00,VWS V13.01,2013-01-14 12:54:00,
2013-01-14 06:59:00,65.1,23.1,25.70,North,0,0.0,0.0,20,0.00,,---,0.00,VWS V13.01,2013-01-14 12:59:00,
2013-01-14 07:04:00,65.3,23.2,25.70,North,0,0.0,0.0,20,0.00,,---,0.00,VWS V13.01,2013-01-14 13:04:00,
2013-01-14 07:09:00,65.3,23.2,25.70,North,0,0.0,0.0,20,0.00,,---,0.00,VWS V13.01,2013-01-14 13:09:00,
2013-01-14 07:14:00,65.1,23.1,25.70,North,0,0.0,0.0,20,0.00,,---,0.00,VWS V13.01,2013-01-14 13:14:00,
2013-01-14 07:19:00,65.3,23.2,25.70,North,0,0.0,0.0,20,0.00,,---,0.00,VWS V13.01,2013-01-14 13:19:00,
2013-01-14 07:24:00,65.5,23.4,25.70,North,0,0.0,0.0,20,0.00,,---,0.00,VWS V13.01,2013-01-14 13:24:00,
2013-01-14 07:29:00,65.8,23.7,25.70,North,0,0.0,0.0,20,0.00,,---,0.00,VWS V13.01,2013-01-14 13:29:00,
2013-01-14 07:34:00,66.0,23.8,25.70,North,0,0.0,0.0,20,0.00,,---,0.00,VWS V13.01,2013-01-14 13:34:00,
2013-01-14 07:39:00,66.2,24.0,25.70,North,0,0.0,0.0,20,0.00,,---,0.00,VWS V13.01,2013-01-14 13:39:00,
2013-01-14 07:44:00,66.4,24.1,25.70,North,0,0.0,0.0,20,0.00,,---,0.00,VWS V13.01,2013-01-14 13:44:00,
2013-01-14 07:49:00,66.6,24.3,25.70,North,0,0.0,0.0,20,0.00,,---,0.00,VWS V13.01,2013-01-14 13:49:00,
2013-01-14 07:54:00,66.9,24.6,25.73,North,0,0.0,0.0,20,0.00,,---,0.00,VWS V13.01,2013-01-14 13:54:00,
2013-01-14 07:59:00,67.3,24.9,25.73,North,0,0.0,0.0,20,0.00,,---,0.00,VWS V13.01,2013-01-14 13:59:00,
2013-01-14 08:04:00,67.8,25.3,25.73,North,0,0.0,0.0,20,0.00,,---,0.00,VWS V13.01,2013-01-14 14:04:00,
2013-01-14 08:09:00,68.4,25.8,25.73,North,0,0.0,0.0,20,0.00,,---,0.00,VWS V13.01,2013-01-14 14:09:00,
2013-01-14 08:14:00,69.1,26.4,25.73,North,0,0.0,0.0,20,0.00,,---,0.00,VWS V13.01,2013-01-14 14:14:00,
2013-01-14 08:19:00,69.8,25.7,25.73,North,0,0.0,0.0,19,0.00,,---,0.00,VWS V13.01,2013-01-14 14:19:00,
2013-01-14 08:24:00,70.7,26.5,25.73,North,0,0.0,0.0,19,0.00,,---,0.00,VWS V13.01,2013-01-14 14:24:00,
2013-01-14 08:29:00,71.2,26.9,25.73,North,0,0.0,0.0,19,0.00,,---,0.00,VWS V13.01,2013-01-14 14:29:00,
2013-01-14 08:34:00,71.6,27.2,25.73,North,0,0.0,0.0,19,0.00,,---,0.00,VWS V13.01,2013-01-14 14:34:00,
2013-01-14 08:39:00,71.6,27.2,25.73,North,0,0.0,0.0,19,0.00,,---,0.00,VWS V13.01,2013-01-14 14:39:00,
2013-01-14 08:44:00,71.8,27.3,25.73,North,0,0.0,0.0,19,0.00,,---,0.00,VWS V13.01,2013-01-14 14:44:00,
2013-01-14 08:49:00,72.0,27.5,25.73,North,0,0.0,0.0,19,0.00,,---,0.00,VWS V13.01,2013-01-14 14:49:00,
2013-01-14 08:54:00,72.0,27.5,25.76,North,0,0.0,0.0,19,0.00,,---,0.00,VWS V13.01,2013-01-14 14:54:00,
2013-01-14 08:59:00,72.5,27.9,25.76,North,0,0.0,0.0,19,0.00,,---,0.00,VWS V13.01,2013-01-14 14:59:00,
2013-01-14 09:04:00,73.0,28.4,25.76,North,0,0.0,0.0,19,0.00,,---,0.00,VWS V13.01,2013-01-14 15:04:00,
2013-01-14 09:09:00,73.8,27.6,25.76,North,0,0.0,0.0,18,0.00,,---,0.00,VWS V13.01,2013-01-14 15:09:00,
2013-01-14 09:14:00,74.5,28.2,25.76,North,0,0.0,0.0,18,0.00,,---,0.00,VWS V13.01,2013-01-14 15:14:00,
2013-01-14 09:19:00,74.8,28.5,25.76,North,0,0.0,0.0,18,0.00,,---,0.00,VWS V13.01,2013-01-14 15:19:00,
2013-01-14 09:24:00,75.0,25.8,25.76,North,0,0.0,0.0,16,0.00,,---,0.00,VWS V13.01,2013-01-14 15:24:00,
2013-01-14 09:29:00,75.0,25.8,25.76,North,0,0.0,0.0,16,0.00,,---,0.00,VWS V13.01,2013-01-14 15:29:00,
2013-01-14 09:34:00,75.2,24.4,25.76,North,0,0.0,0.0,15,0.00,,---,0.00,VWS V13.01,2013-01-14 15:34:00,
2013-01-14 09:39:00,74.8,25.7,25.79,North,0,0.0,0.0,16,0.00,,---,0.00,VWS V13.01,2013-01-14 15:39:00,
2013-01-14 09:44:00,74.7,25.5,25.79,North,0,0.0,0.0,16,0.00,,---,0.00,VWS V13.01,2013-01-14 15:44:00,
2013-01-14 09:49:00,74.5,25.4,25.79,North,0,0.0,0.0,16,0.00,,---,0.00,VWS V13.01,2013-01-14 15:49:00,
2013-01-14 09:54:00,74.8,25.7,25.79,North,0,0.0,0.0,16,0.00,,---,0.00,VWS V13.01,2013-01-14 15:54:00,
2013-01-14 09:59:00,74.7,25.5,25.79,North,0,0.0,0.0,16,0.00,,---,0.00,VWS V13.01,2013-01-14 15:59:00,
2013-01-14 10:04:00,75.0,25.8,25.79,North,0,0.0,0.0,16,0.00,,---,0.00,VWS V13.01,2013-01-14 16:04:00,
2013-01-14 10:09:00,75.7,24.9,25.79,North,0,0.0,0.0,15,0.00,,---,0.00,VWS V13.01,2013-01-14 16:09:00,
2013-01-14 10:14:00,76.3,25.3,25.79,North,0,0.0,0.0,15,0.00,,---,0.00,VWS V13.01,2013-01-14 16:14:00,
2013-01-14 10:19:00,76.3,25.3,25.79,North,0,0.0,0.0,15,0.00,,---,0.00,VWS V13.01,2013-01-14 16:19:00,
2013-01-14 10:24:00,76.5,25.4,25.79,North,0,0.0,0.0,15,0.00,,---,0.00,VWS V13.01,2013-01-14 16:24:00,
2013-01-14 10:29:00,76.8,25.7,25.79,North,0,0.0,0.0,15,0.00,,---,0.00,VWS V13.01,2013-01-14 16:29:00,
2013-01-14 10:34:00,76.8,25.7,25.79,North,0,0.0,0.0,15,0.00,,---,0.00,VWS V13.01,2013-01-14 16:34:00,
2013-01-14 10:39:00,77.0,25.9,25.79,North,0,0.0,0.0,15,0.00,,---,0.00,VWS V13.01,2013-01-14 16:39:00,
2013-01-14 10:44:00,77.0,25.9,25.79,North,0,0.0,0.0,15,0.00,,---,0.00,VWS V13.01,2013-01-14 16:44:00,
2013-01-14 10:49:00,77.0,25.9,25.79,North,0,0.0,0.0,15,0.00,,---,0.00,VWS V13.01,2013-01-14 16:49:00,
2013-01-14 10:54:00,77.2,26.0,25.79,North,0,0.0,0.0,15,0.00,,---,0.00,VWS V13.01,2013-01-14 16:54:00,
2013-01-14 10:59:00,76.3,25.3,25.79,North,0,0.0,0.0,15,0.00,,---,0.00,VWS V13.01,2013-01-14 16:59:00,
2013-01-14 11:04:00,76.3,25.3,25.79,North,0,0.0,0.0,15,0.00,,---,0.00,VWS V13.01,2013-01-14 17:04:00,
2013-01-14 11:09:00,75.4,24.6,25.79,North,0,0.0,0.0,15,0.00,,---,0.00,VWS V13.01,2013-01-14 17:09:00,
2013-01-14 11:14:00,74.3,25.2,25.79,North,0,0.0,0.0,16,0.00,,---,0.00,VWS V13.01,2013-01-14 17:14:00,
2013-01-14 11:19:00,73.8,24.8,25.79,North,0,0.0,0.0,16,0.00,,---,0.00,VWS V13.01,2013-01-14 17:19:00,
2013-01-14 11:24:00,73.2,24.4,25.79,North,0,0.0,0.0,16,0.00,,---,0.00,VWS V13.01,2013-01-14 17:24:00,
2013-01-14 11:29:00,72.7,23.9,25.79,North,0,0.0,0.0,16,0.00,,---,0.00,VWS V13.01,2013-01-14 17:29:00,
2013-01-14 11:34:00,72.3,23.6,25.79,North,0,0.0,0.0,16,0.00,,---,0.00,VWS V13.01,2013-01-14 17:34:00,
2013-01-14 11:39:00,72.0,23.4,25.76,North,0,0.0,0.0,16,0.00,,---,0.00,VWS V13.01,2013-01-14 17:39:00,
2013-01-14 11:44:00,72.1,23.5,25.76,North,0,0.0,0.0,16,0.00,,---,0.00,VWS V13.01,2013-01-14 17:44:00,
2013-01-14 11:49:00,72.9,28.2,25.76,North,0,0.0,0.0,19,0.00,,---,0.00,VWS V13.01,2013-01-14 17:49:00,
2013-01-14 11:54:00,73.9,27.8,25.76,North,0,0.0,0.0,18,0.00,,---,0.00,VWS V13.01,2013-01-14 17:54:00,
2013-01-14 11:59:00,74.3,28.1,25.76,North,0,0.0,0.0,18,0.00,,---,0.00,VWS V13.01,2013-01-14 17:59:00,
2013-01-14 12:04:00,75.0,25.8,25.76,North,0,0.0,0.0,16,0.00,,---,0.00,VWS V13.01,2013-01-14 18:04:00,
2013-01-14 12:09:00,75.9,25.0,25.76,North,0,0.0,0.0,15,0.00,,---,0.00,VWS V13.01,2013-01-14 18:09:00,
2013-01-14 12:14:00,75.9,25.0,25.76,North,0,0.0,0.0,15,0.00,,---,0.00,VWS V13.01,2013-01-14 18:14:00,
2013-01-14 12:19:00,75.9,25.0,25.76,North,0,0.0,0.0,15,0.00,,---,0.00,VWS V13.01,2013-01-14 18:19:00,
2013-01-14 12:24:00,75.9,25.0,25.73,North,0,0.0,0.0,15,0.00,,---,0.00,VWS V13.01,2013-01-14 18:24:00,
2013-01-14 12:29:00,76.3,25.3,25.73,North,0,0.0,0.0,15,0.00,,---,0.00,VWS V13.01,2013-01-14 18:29:00,
2013-01-14 12:34:00,75.7,24.9,25.73,North,0,0.0,0.0,15,0.00,,---,0.00,VWS V13.01,2013-01-14 18:34:00,
2013-01-14 12:39:00,75.6,24.7,25.73,North,0,0.0,0.0,15,0.00,,---,0.00,VWS V13.01,2013-01-14 18:39:00,
2013-01-14 12:44:00,75.2,24.4,25.73,North,0,0.0,0.0,15,0.00,,---,0.00,VWS V13.01,2013-01-14 18:44:00,
2013-01-14 12:49:00,74.3,25.2,25.73,North,0,0.0,0.0,16,0.00,,---,0.00,VWS V13.01,2013-01-14 18:49:00,
2013-01-14 12:54:00,73.9,25.0,25.73,North,0,0.0,0.0,16,0.00,,---,0.00,VWS V13.01,2013-01-14 18:54:00,
2013-01-14 12:59:00,73.9,25.0,25.73,North,0,0.0,0.0,16,0.00,,---,0.00,VWS V13.01,2013-01-14 18:59:00,
2013-01-14 13:04:00,73.8,24.8,25.73,North,0,0.0,0.0,16,0.00,,---,0.00,VWS V13.01,2013-01-14 19:04:00,
2013-01-14 13:09:00,73.2,24.4,25.73,North,0,0.0,0.0,16,0.00,,---,0.00,VWS V13.01,2013-01-14 19:09:00,
2013-01-14 13:14:00,72.7,23.9,25.73,North,0,0.0,0.0,16,0.00,,---,0.00,VWS V13.01,2013-01-14 19:14:00,
2013-01-14 13:19:00,72.5,27.9,25.73,North,0,0.0,0.0,19,0.00,,---,0.00,VWS V13.01,2013-01-14 19:19:00,
2013-01-14 13:24:00,72.3,27.8,25.73,North,0,0.0,0.0,19,0.00,,---,0.00,VWS V13.01,2013-01-14 19:24:00,
2013-01-14 13:29:00,72.3,27.8,25.73,North,0,0.0,0.0,19,0.00,,---,0.00,VWS V13.01,2013-01-14 19:29:00,
2013-01-14 13:34:00,73.0,28.4,25.73,North,0,0.0,0.0,19,0.00,,---,0.00,VWS V13.01,2013-01-14 19:34:00,
2013-01-14 13:39:00,73.9,27.8,25.73,North,0,0.0,0.0,18,0.00,,---,0.00,VWS V13.01,2013-01-14 19:39:00,
2013-01-14 13:44:00,74.7,28.4,25.73,North,0,0.0,0.0,18,0.00,,---,0.00,VWS V13.01,2013-01-14 19:44:00,
2013-01-14 13:49:00,75.4,29.0,25.73,North,0,0.0,0.0,18,0.00,,---,0.00,VWS V13.01,2013-01-14 19:49:00,
2013-01-14 13:54:00,75.7,29.3,25.73,North,0,0.0,0.0,18,0.00,,---,0.00,VWS V13.01,2013-01-14 19:54:00,
2013-01-14 13:59:00,75.9,29.4,25.73,North,0,0.0,0.0,18,0.00,,---,0.00,VWS V13.01,2013-01-14 19:59:00,
2013-01-14 14:04:00,75.7,29.3,25.73,North,0,0.0,0.0,18,0.00,,---,0.00,VWS V13.01,2013-01-14 20:04:00,
2013-01-14 14:09:00,75.0,25.8,25.73,North,0,0.0,0.0,16,0.00,,---,0.00,VWS V13.01,2013-01-14 20:09:00,
2013-01-14 14:14:00,74.3,28.1,25.73,North,0,0.0,0.0,18,0.00,,---,0.00,VWS V13.01,2013-01-14 20:14:00,
2013-01-14 14:19:00,73.9,27.8,25.73,North,0,0.0,0.0,18,0.00,,---,0.00,VWS V13.01,2013-01-14 20:19:00,
2013-01-14 14:24:00,73.4,27.4,25.73,North,0,0.0,0.0,18,0.00,,---,0.00,VWS V13.01,2013-01-14 20:24:00,
2013-01-14 14:29:00,72.9,28.2,25.73,North,0,0.0,0.0,19,0.00,,---,0.00,VWS V13.01,2013-01-14 20:29:00,
2013-01-14 14:34:00,72.5,27.9,25.73,North,0,0.0,0.0,19,0.00,,---,0.00,VWS V13.01,2013-01-14 20:34:00,
2013-01-14 14:39:00,72.1,27.6,25.73,North,0,0.0,0.0,19,0.00,,---,0.00,VWS V13.01,2013-01-14 20:39:00,
2013-01-14 14:44:00,72.0,27.5,25.73,North,0,0.0,0.0,19,0.00,,---,0.00,VWS V13.01,2013-01-14 20:44:00,
2013-01-14 14:49:00,71.4,27.0,25.73,North,0,0.0,0.0,19,0.00,,---,0.00,VWS V13.01,2013-01-14 20:49:00,
2013-01-14 14:54:00,71.2,26.9,25.70,North,0,0.0,0.0,19,0.00,,---,0.00,VWS V13.01,2013-01-14 20:54:00,
2013-01-14 14:59:00,71.1,26.8,25.70,North,0,0.0,0.0,19,0.00,,---,0.00,VWS V13.01,2013-01-14 20:59:00,
2013-01-14 15:04:00,71.1,26.8,25.70,North,0,0.0,0.0,19,0.00,,---,0.00,VWS V13.01,2013-01-14 21:04:00,
2013-01-14 15:09:00,71.1,26.8,25.70,North,0,0.0,0.0,19,0.00,,---,0.00,VWS V13.01,2013-01-14 21:09:00,
2013-01-14 15:14:00,70.7,26.5,25.70,North,0,0.0,0.0,19,0.00,,---,0.00,VWS V13.01,2013-01-14 21:14:00,
2013-01-14 15:19:00,70.3,26.2,25.70,North,0,0.0,0.0,19,0.00,,---,0.00,VWS V13.01,2013-01-14 21:19:00,
2013-01-14 15:24:00,70.2,26.0,25.70,North,0,0.0,0.0,19,0.00,,---,0.00,VWS V13.01,2013-01-14 21:24:00,
2013-01-14 15:29:00,70.0,25.9,25.70,North,0,0.0,0.0,19,0.00,,---,0.00,VWS V13.01,2013-01-14 21:29:00,
2013-01-14 15:34:00,70.0,25.9,25.70,North,0,0.0,0.0,19,0.00,,---,0.00,VWS V13.01,2013-01-14 21:34:00,
2013-01-14 15:39:00,69.8,25.7,25.70,North,0,0.0,0.0,19,0.00,,---,0.00,VWS V13.01,2013-01-14 21:39:00,
2013-01-14 15:44:00,69.4,26.7,25.70,North,0,0.0,0.0,20,0.00,,---,0.00,VWS V13.01,2013-01-14 21:44:00,
2013-01-14 15:49:00,69.3,26.5,25.70,North,0,0.0,0.0,20,0.00,,---,0.00,VWS V13.01,2013-01-14 21:49:00,
2013-01-14 15:54:00,68.7,26.1,25.70,North,0,0.0,0.0,20,0.00,,---,0.00,VWS V13.01,2013-01-14 21:54:00,
2013-01-14 15:59:00,68.5,25.9,25.70,North,0,0.0,0.0,20,0.00,,---,0.00,VWS V13.01,2013-01-14 21:59:00,
2013-01-14 16:04:00,68.4,28.1,25.70,North,0,0.0,0.0,22,0.00,,---,0.00,VWS V13.01,2013-01-14 22:04:00,
2013-01-14 16:09:00,68.4,28.1,25.70,North,0,0.0,0.0,22,0.00,,---,0.00,VWS V13.01,2013-01-14 22:09:00,
2013-01-14 16:14:00,68.2,27.9,25.70,North,0,0.0,0.0,22,0.00,,---,0.00,VWS V13.01,2013-01-14 22:14:00,
2013-01-14 16:19:00,68.0,27.8,25.70,North,0,0.0,0.0,22,0.00,,---,0.00,VWS V13.01,2013-01-14 22:19:00,
2013-01-14 16:24:00,67.8,27.6,25.70,North,0,0.0,0.0,22,0.00,,---,0.00,VWS V13.01,2013-01-14 22:24:00,
2013-01-14 16:29:00,67.6,28.5,25.70,North,0,0.0,0.0,23,0.00,,---,0.00,VWS V13.01,2013-01-14 22:29:00,
2013-01-14 16:34:00,67.5,28.4,25.70,North,0,0.0,0.0,23,0.00,,---,0.00,VWS V13.01,2013-01-14 22:34:00,
2013-01-14 16:39:00,67.5,28.4,25.70,North,0,0.0,0.0,23,0.00,,---,0.00,VWS V13.01,2013-01-14 22:39:00,
2013-01-14 16:44:00,67.5,28.4,25.70,North,0,0.0,0.0,23,0.00,,---,0.00,VWS V13.01,2013-01-14 22:44:00,
2013-01-14 16:49:00,67.5,28.4,25.70,North,0,0.0,0.0,23,0.00,,---,0.00,VWS V13.01,2013-01-14 22:49:00,
2013-01-14 16:54:00,67.6,28.5,25.70,North,0,0.0,0.0,23,0.00,,---,0.00,VWS V13.01,2013-01-14 22:54:00,
2013-01-14 16:59:00,67.5,28.4,25.70,North,0,0.0,0.0,23,0.00,,---,0.00,VWS V13.01,2013-01-14 22:59:00,
2013-01-14 17:04:00,67.3,28.2,25.70,North,0,0.0,0.0,23,0.00,,---,0.00,VWS V13.01,2013-01-14 23:04:00,
2013-01-14 17:09:00,67.1,28.1,25.70,North,0,0.0,0.0,23,0.00,,---,0.00,VWS V13.01,2013-01-14 23:09:00,
2013-01-14 17:14:00,67.1,28.1,25.70,North,0,0.0,0.0,23,0.00,,---,0.00,VWS V13.01,2013-01-14 23:14:00,
2013-01-14 17:19:00,66.9,27.9,25.70,North,0,0.0,0.0,23,0.00,,---,0.00,VWS V13.01,2013-01-14 23:19:00,
2013-01-14 17:24:00,66.9,27.9,25.70,North,0,0.0,0.0,23,0.00,,---,0.00,VWS V13.01,2013-01-14 23:24:00,
2013-01-14 17:29:00,66.9,27.9,25.70,North,0,0.0,0.0,23,0.00,,---,0.00,VWS V13.01,2013-01-14 23:29:00,
2013-01-14 17:34:00,66.9,27.9,25.70,North,0,0.0,0.0,23,0.00,,---,0.00,VWS V13.01,2013-01-14 23:34:00,
2013-01-14 17:39:00,66.9,27.9,25.70,North,0,0.0,0.0,23,0.00,,---,0.00,VWS V13.01,2013-01-14 23:39:00,
2013-01-14 17:44:00,66.7,26.7,25.70,North,0,0.0,0.0,22,0.00,,---,0.00,VWS V13.01,2013-01-14 23:44:00,
2013-01-14 17:49:00,66.7,26.7,25.70,North,0,0.0,0.0,22,0.00,,---,0.00,VWS V13.01,2013-01-14 23:49:00,
2013-01-14 17:54:00,66.7,26.7,25.70,North,0,0.0,0.0,22,0.00,,---,0.00,VWS V13.01,2013-01-14 23:54:00,
2013-01-14 17:59:00,66.6,26.6,25.70,North,0,0.0,0.0,22,0.00,,---,0.00,VWS V13.01,2013-01-14 23:59:00,
2013-01-14 18:04:00,66.6,26.6,25.70,North,0,0.0,0.0,22,0.00,,---,0.00,VWS V13.01,2013-01-15 00:04:00,
2013-01-14 18:09:00,66.4,26.4,25.70,North,0,0.0,0.0,22,0.00,,---,0.00,VWS V13.01,2013-01-15 00:09:00,
2013-01-14 18:14:00,66.4,26.4,25.70,North,0,0.0,0.0,22,0.00,,---,0.00,VWS V13.01,2013-01-15 00:14:00,
2013-01-14 18:19:00,66.4,26.4,25.70,North,0,0.0,0.0,22,0.00,,---,0.00,VWS V13.01,2013-01-15 00:19:00,
2013-01-14 18:24:00,66.2,26.3,25.70,North,0,0.0,0.0,22,0.00,,---,0.00,VWS V13.01,2013-01-15 00:24:00,
2013-01-14 18:29:00,66.2,26.3,25.70,North,0,0.0,0.0,22,0.00,,---,0.00,VWS V13.01,2013-01-15 00:29:00,
2013-01-14 18:34:00,66.2,26.3,25.70,North,0,0.0,0.0,22,0.00,,---,0.00,VWS V13.01,2013-01-15 00:34:00,
2013-01-14 18:39:00,66.0,27.2,25.70,North,0,0.0,0.0,23,0.00,,---,0.00,VWS V13.01,2013-01-15 00:39:00,
2013-01-14 18:44:00,66.0,27.2,25.70,North,0,0.0,0.0,23,0.00,,---,0.00,VWS V13.01,2013-01-15 00:44:00,
2013-01-14 18:49:00,66.0,27.2,25.70,North,0,0.0,0.0,23,0.00,,---,0.00,VWS V13.01,2013-01-15 00:49:00,
2013-01-14 18:54:00,66.2,26.3,25.70,North,0,0.0,0.0,22,0.00,,---,0.00,VWS V13.01,2013-01-15 00:54:00,
2013-01-14 18:59:00,66.2,26.3,25.70,North,0,0.0,0.0,22,0.00,,---,0.00,VWS V13.01,2013-01-15 00:59:00,
2013-01-14 19:04:00,66.2,26.3,25.70,North,0,0.0,0.0,22,0.00,,---,0.00,VWS V13.01,2013-01-15 01:04:00,
2013-01-14 19:09:00,66.2,26.3,25.70,North,0,0.0,0.0,22,0.00,,---,0.00,VWS V13.01,2013-01-15 01:09:00,
2013-01-14 19:14:00,66.2,26.3,25.70,North,0,0.0,0.0,22,0.00,,---,0.00,VWS V13.01,2013-01-15 01:14:00,
2013-01-14 19:19:00,66.2,26.3,25.70,North,0,0.0,0.0,22,0.00,,---,0.00,VWS V13.01,2013-01-15 01:19:00,
2013-01-14 19:24:00,66.2,26.3,25.70,North,0,0.0,0.0,22,0.00,,---,0.00,VWS V13.01,2013-01-15 01:24:00,
2013-01-14 19:29:00,66.0,27.2,25.70,North,0,0.0,0.0,23,0.00,,---,0.00,VWS V13.01,2013-01-15 01:29:00,
2013-01-14 19:34:00,66.0,27.2,25.70,North,0,0.0,0.0,23,0.00,,---,0.00,VWS V13.01,2013-01-15 01:34:00,
2013-01-14 19:39:00,66.0,27.2,25.70,North,0,0.0,0.0,23,0.00,,---,0.00,VWS V13.01,2013-01-15 01:39:00,
2013-01-14 19:44:00,66.2,26.3,25.70,North,0,0.0,0.0,22,0.00,,---,0.00,VWS V13.01,2013-01-15 01:44:00,
2013-01-14 19:49:00,66.4,26.4,25.70,North,0,0.0,0.0,22,0.00,,---,0.00,VWS V13.01,2013-01-15 01:49:00,
2013-01-14 19:54:00,66.6,26.6,25.70,North,0,0.0,0.0,22,0.00,,---,0.00,VWS V13.01,2013-01-15 01:54:00,
2013-01-14 19:59:00,66.4,26.4,25.70,North,0,0.0,0.0,22,0.00,,---,0.00,VWS V13.01,2013-01-15 01:59:00,
2013-01-14 20:04:00,66.2,26.3,25.70,North,0,0.0,0.0,22,0.00,,---,0.00,VWS V13.01,2013-01-15 02:04:00,
2013-01-14 20:09:00,65.8,27.0,25.73,North,0,0.0,0.0,23,0.00,,---,0.00,VWS V13.01,2013-01-15 02:09:00,
2013-01-14 20:14:00,65.7,26.9,25.73,North,0,0.0,0.0,23,0.00,,---,0.00,VWS V13.01,2013-01-15 02:14:00,
2013-01-14 20:19:00,65.7,26.9,25.73,North,0,0.0,0.0,23,0.00,,---,0.00,VWS V13.01,2013-01-15 02:19:00,
2013-01-14 20:24:00,65.7,26.9,25.70,North,0,0.0,0.0,23,0.00,,---,0.00,VWS V13.01,2013-01-15 02:24:00,
2013-01-14 20:29:00,66.0,27.2,25.70,North,0,0.0,0.0,23,0.00,,---,0.00,VWS V13.01,2013-01-15 02:29:00,
2013-01-14 20:34:00,66.0,27.2,25.70,North,0,0.0,0.0,23,0.00,,---,0.00,VWS V13.01,2013-01-15 02:34:00,
2013-01-14 20:39:00,65.8,27.0,25.70,North,0,0.0,0.0,23,0.00,,---,0.00,VWS V13.01,2013-01-15 02:39:00,
2013-01-14 20:44:00,65.5,26.7,25.70,North,0,0.0,0.0,23,0.00,,---,0.00,VWS V13.01,2013-01-15 02:44:00,
2013-01-14 20:49:00,65.3,26.6,25.70,North,0,0.0,0.0,23,0.00,,---,0.00,VWS V13.01,2013-01-15 02:49:00,
2013-01-14 20:54:00,65.1,27.5,25.70,North,0,0.0,0.0,24,0.00,,---,0.00,VWS V13.01,2013-01-15 02:54:00,
2013-01-14 20:59:00,64.8,27.2,25.70,North,0,0.0,0.0,24,0.00,,---,0.00,VWS V13.01,2013-01-15 02:59:00,
2013-01-14 21:04:00,64.8,27.2,25.70,North,0,0.0,0.0,24,0.00,,---,0.00,VWS V13.01,2013-01-15 03:04:00,
2013-01-14 21:09:00,64.8,27.2,25.73,North,0,0.0,0.0,24,0.00,,---,0.00,VWS V13.01,2013-01-15 03:09:00,
2013-01-14 21:14:00,64.8,27.2,25.73,North,0,0.0,0.0,24,0.00,,---,0.00,VWS V13.01,2013-01-15 03:14:00,
2013-01-14 21:19:00,64.6,27.0,25.73,North,0,0.0,0.0,24,0.00,,---,0.00,VWS V13.01,2013-01-15 03:19:00,
2013-01-14 21:24:00,64.4,26.9,25.73,North,0,0.0,0.0,24,0.00,,---,0.00,VWS V13.01,2013-01-15 03:24:00,
2013-01-14 21:29:00,64.4,26.9,25.73,North,0,0.0,0.0,24,0.00,,---,0.00,VWS V13.01,2013-01-15 03:29:00,
2013-01-14 21:35:00,64.6,26.0,25.73,North,0,0.0,0.0,23,0.00,,---,0.00,VWS V13.01,2013-01-15 03:35:00,
2013-01-14 21:40:00,64.8,26.1,25.70,North,0,0.0,0.0,23,0.00,,---,0.00,VWS V13.01,2013-01-15 03:40:00,
2013-01-14 21:45:00,64.9,26.3,25.70,North,0,0.0,0.0,23,0.00,,---,0.00,VWS V13.01,2013-01-15 03:45:00,
2013-01-14 21:50:00,65.1,26.4,25.70,North,0,0.0,0.0,23,0.00,,---,0.00,VWS V13.01,2013-01-15 03:50:00,
2013-01-14 21:55:00,64.9,26.3,25.70,North,0,0.0,0.0,23,0.00,,---,0.00,VWS V13.01,2013-01-15 03:55:00,
2013-01-14 22:00:00,64.8,26.1,25.70,North,0,0.0,0.0,23,0.00,,---,0.00,VWS V13.01,2013-01-15 04:00:00,
2013-01-14 22:06:00,64.6,26.0,25.70,North,0,0.0,0.0,23,0.00,,---,0.00,VWS V13.01,2013-01-15 04:06:00,
2013-01-14 22:11:00,64.6,26.0,25.70,North,0,0.0,0.0,23,0.00,,---,0.00,VWS V13.01,2013-01-15 04:11:00,
2013-01-14 22:16:00,64.8,26.1,25.70,North,0,0.0,0.0,23,0.00,,---,0.00,VWS V13.01,2013-01-15 04:16:00,
2013-01-14 22:21:00,64.8,26.1,25.70,North,0,0.0,0.0,23,0.00,,---,0.00,VWS V13.01,2013-01-15 04:21:00,
2013-01-14 22:26:00,64.9,26.3,25.70,North,0,0.0,0.0,23,0.00,,---,0.00,VWS V13.01,2013-01-15 04:26:00,
2013-01-14 22:31:00,64.8,26.1,25.70,North,0,0.0,0.0,23,0.00,,---,0.00,VWS V13.01,2013-01-15 04:31:00,
2013-01-14 22:36:00,64.8,26.1,25.70,North,0,0.0,0.0,23,0.00,,---,0.00,VWS V13.01,2013-01-15 04:36:00,
2013-01-14 22:41:00,64.6,26.0,25.70,North,0,0.0,0.0,23,0.00,,---,0.00,VWS V13.01,2013-01-15 04:41:00,
2013-01-14 22:47:00,64.8,26.1,25.70,North,0,0.0,0.0,23,0.00,,---,0.00,VWS V13.01,2013-01-15 04:47:00,
2013-01-14 22:52:00,64.6,26.0,25.70,North,0,0.0,0.0,23,0.00,,---,0.00,VWS V13.01,2013-01-15 04:52:00,
2013-01-14 22:57:00,64.4,25.8,25.70,North,0,0.0,0.0,23,0.00,,---,0.00,VWS V13.01,2013-01-15 04:57:00,
2013-01-14 23:01:00,64.4,25.8,25.70,North,0,0.0,0.0,23,0.00,,---,0.00,VWS V13.01,2013-01-15 05:01:00,
2013-01-14 23:02:00,64.4,25.8,25.70,North,0,0.0,0.0,23,0.00,,---,0.00,VWS V13.01,2013-01-15 05:02:00,
2013-01-14 23:03:00,64.4,25.8,25.70,North,0,0.0,0.0,23,0.00,,---,0.00,VWS V13.01,2013-01-15 05:03:00,
2013-01-14 23:08:00,64.2,25.7,25.67,North,0,0.0,0.0,23,0.00,,---,0.00,VWS V13.01,2013-01-15 05:08:00,
2013-01-14 23:13:00,64.2,25.7,25.67,North,0,0.0,0.0,23,0.00,,---,0.00,VWS V13.01,2013-01-15 05:13:00,
2013-01-14 23:19:00,64.4,25.8,25.67,North,0,0.0,0.0,23,0.00,,---,0.00,VWS V13.01,2013-01-15 05:19:00,
2013-01-14 23:24:00,64.9,26.3,25.70,North,0,0.0,0.0,23,0.00,,---,0.00,VWS V13.01,2013-01-15 05:24:00,
2013-01-14 23:29:00,65.3,26.6,25.70,North,0,0.0,0.0,23,0.00,,---,0.00,VWS V13.01,2013-01-15 05:29:00,
2013-01-14 23:34:00,65.7,23.5,25.70,North,0,0.0,0.0,20,0.00,,---,0.00,VWS V13.01,2013-01-15 05:34:00,
2013-01-14 23:39:00,65.8,23.7,25.70,North,0,0.0,0.0,20,0.00,,---,0.00,VWS V13.01,2013-01-15 05:39:00,
2013-01-14 23:44:00,66.0,23.8,25.70,North,0,0.0,0.0,20,0.00,,---,0.00,VWS V13.01,2013-01-15 05:44:00,
2013-01-14 23:49:00,66.0,23.8,25.70,North,0,0.0,0.0,20,0.00,,---,0.00,VWS V13.01,2013-01-15 05:49:00,
2013-01-14 23:54:00,66.0,23.8,25.67,North,0,0.0,0.0,20,0.00,,---,0.00,VWS V13.01,2013-01-15 05:54:00,
2013-01-14 23:59:00,66.0,23.8,25.67,North,0,0.0,0.0,20,0.00,,---,0.00,VWS V13.01,2013-01-15 05:59:00,